Location: Ferma
(41.9500°N, 44.5167°E)
Time: 21:06:19
(UTC+00:00)

FENGYUN 1C DEB - Pass Details

Date: 15 August 2022
Orbit: 606 x 930 km, 99.7° (Epoch: 01 October)

Event Time Altitude Azimuth Distance (km) Brightness Sun altitude
Exits shadow 19:11:15 17° 240° (WSW) 1,900 ? -28.2°
Maximum altitude 19:13:09 20° 268° (W) 1,765 ? -28.4°
Drops below altitude 10° 19:17:02 10° 314° (NW) 2,440 ? -28.8°
Sets 19:20:09 0° 331° (NNW) 3,438 ? -29.1°
